When you browse on this site, cookies collect data to enhance your experience and personalize the content and advertising you see.
Visit our Privacy Policy to learn more. By continuing to use the site, you agree to this use of cookies and data.
  • In Latvia
  • List of Countries
  • For 7 days
  • Water Temperature
  • Weather Map
  • Weather Widgets
  • user-avatar
    Login

    Hourly Weather Ondjiwa

    Today, 4 June, Thursday

    Time Temperature Precipitation Wind Pressure Humidity
    00:00 +18°C° 0 mm 2 mps 668 mmHg 34%
    01:00 +18°C° 0 mm 1 mps 668 mmHg 35%
    02:00 +18°C° 0 mm 1 mps 668 mmHg 35%
    03:00 +17°C° 0 mm 2 mps 668 mmHg 36%
    04:00 +17°C° 0 mm 2 mps 668 mmHg 36%
    05:00 +18°C° 0 mm 1 mps 669 mmHg 36%
    06:00 +18°C° 0 mm 1 mps 669 mmHg 37%
    07:00 +18°C° 0 mm 1 mps 670 mmHg 38%
    08:00 +20°C° 0 mm 2 mps 670 mmHg 33%
    09:00 +23°C° 0 mm 2 mps 671 mmHg 28%
    10:00 +26°C° 0 mm 3 mps 671 mmHg 23%
    11:00 +27°C° 0 mm 3 mps 671 mmHg 22%
    12:00 +29°C° 0 mm 2 mps 670 mmHg 20%
    13:00 +30°C° 0 mm 2 mps 670 mmHg 18%
    14:00 +30°C° 0 mm 2 mps 669 mmHg 18%
    15:00 +30°C° 0 mm 1 mps 669 mmHg 17%
    16:00 +30°C° 0 mm 1 mps 669 mmHg 17%
    17:00 +27°C° 0 mm 1 mps 668 mmHg 21%
    18:00 +25°C° 0 mm 2 mps 668 mmHg 24%
    19:00 +21°C° 0 mm 2 mps 668 mmHg 28%
    20:00 +20°C° 0 mm 2 mps 668 mmHg 30%
    21:00 +19°C° 0 mm 2 mps 668 mmHg 32%
    22:00 +18°C° 0 mm 2 mps 668 mmHg 34%
    23:00 +17°C° 0 mm 2 mps 668 mmHg 35%

    Tomorrow, 5 June, Friday

    Time Temperature Precipitation Wind Pressure Humidity
    00:00 +16°C° 0 mm 2 mps 668 mmHg 37%
    01:00 +16°C° 0 mm 2 mps 668 mmHg 38%
    02:00 +15°C° 0 mm 2 mps 668 mmHg 39%
    03:00 +15°C° 0 mm 2 mps 668 mmHg 40%
    04:00 +14°C° 0 mm 2 mps 668 mmHg 41%
    05:00 +14°C° 0 mm 2 mps 669 mmHg 42%
    06:00 +13°C° 0 mm 1 mps 669 mmHg 44%
    07:00 +13°C° 0 mm 1 mps 669 mmHg 45%
    08:00 +17°C° 0 mm 2 mps 670 mmHg 38%
    09:00 +21°C° 0 mm 3 mps 671 mmHg 31%
    10:00 +25°C° 0 mm 4 mps 672 mmHg 23%
    11:00 +27°C° 0 mm 3 mps 672 mmHg 21%
    12:00 +29°C° 0 mm 3 mps 671 mmHg 19%
    13:00 +31°C° 0 mm 3 mps 671 mmHg 17%
    14:00 +31°C° 0 mm 3 mps 671 mmHg 17%
    15:00 +31°C° 0 mm 2 mps 670 mmHg 17%
    16:00 +31°C° 0 mm 1 mps 670 mmHg 17%
    17:00 +28°C° 0 mm 1 mps 669 mmHg 20%
    18:00 +25°C° 0 mm 2 mps 669 mmHg 24%
    19:00 +21°C° 0 mm 2 mps 669 mmHg 27%
    20:00 +20°C° 0 mm 2 mps 669 mmHg 29%
    21:00 +19°C° 0 mm 2 mps 669 mmHg 31%
    22:00 +18°C° 0 mm 2 mps 669 mmHg 32%
    23:00 +18°C° 0 mm 2 mps 669 mmHg 34%

    Day after tomorrow, 6 June, Saturday

    Time Temperature Precipitation Wind Pressure Humidity
    00:00 +17°C° 0 mm 2 mps 669 mmHg 35%
    01:00 +16°C° 0 mm 2 mps 669 mmHg 36%
    02:00 +15°C° 0 mm 2 mps 669 mmHg 37%
    03:00 +15°C° 0 mm 2 mps 669 mmHg 39%
    04:00 +14°C° 0 mm 2 mps 668 mmHg 40%
    05:00 +14°C° 0 mm 2 mps 669 mmHg 41%
    06:00 +13°C° 0 mm 2 mps 669 mmHg 43%
    07:00 +13°C° 0 mm 2 mps 670 mmHg 44%
    08:00 +17°C° 0 mm 3 mps 670 mmHg 36%
    09:00 +20°C° 0 mm 4 mps 671 mmHg 28%
    10:00 +25°C° 0 mm 5 mps 672 mmHg 20%
    11:00 +27°C° 0 mm 4 mps 672 mmHg 18%
    12:00 +29°C° 0 mm 4 mps 672 mmHg 17%
    13:00 +32°C° 0 mm 4 mps 671 mmHg 15%
    14:00 +31°C° 0 mm 3 mps 671 mmHg 15%
    15:00 +31°C° 0 mm 3 mps 670 mmHg 15%
    16:00 +31°C° 0 mm 2 mps 670 mmHg 15%
    17:00 +28°C° 0 mm 2 mps 669 mmHg 18%
    18:00 +25°C° 0 mm 2 mps 669 mmHg 22%
    19:00 +21°C° 0 mm 2 mps 669 mmHg 25%
    20:00 +20°C° 0 mm 2 mps 669 mmHg 27%
    21:00 +19°C° 0 mm 2 mps 669 mmHg 28%
    22:00 +17°C° 0 mm 2 mps 669 mmHg 30%
    23:00 +17°C° 0 mm 2 mps 669 mmHg 31%

    7 June, Sunday

    Time Temperature Precipitation Wind Pressure Humidity
    00:00 +16°C° 0 mm 3 mps 669 mmHg 32%
    01:00 +16°C° 0 mm 3 mps 669 mmHg 33%
    02:00 +14°C° 0 mm 3 mps 669 mmHg 34%
    03:00 +13°C° 0 mm 3 mps 669 mmHg 35%
    04:00 +13°C° 0 mm 3 mps 669 mmHg 36%
    05:00 +13°C° 0 mm 3 mps 669 mmHg 37%
    06:00 +12°C° 0 mm 3 mps 669 mmHg 37%
    07:00 +12°C° 0 mm 3 mps 670 mmHg 38%
    08:00 +17°C° 0 mm 3 mps 671 mmHg 32%
    09:00 +21°C° 0 mm 4 mps 671 mmHg 27%
    10:00 +25°C° 0 mm 4 mps 672 mmHg 21%
    11:00 +27°C° 0 mm 4 mps 672 mmHg 19%
    12:00 +29°C° 0 mm 4 mps 671 mmHg 17%
    13:00 +30°C° 0 mm 4 mps 671 mmHg 15%
    14:00 +30°C° 0 mm 3 mps 670 mmHg 15%
    15:00 +30°C° 0 mm 3 mps 670 mmHg 15%
    16:00 +30°C° 0 mm 2 mps 670 mmHg 15%
    17:00 +27°C° 0 mm 2 mps 669 mmHg 18%
    18:00 +24°C° 0 mm 2 mps 669 mmHg 21%
    19:00 +20°C° 0 mm 2 mps 669 mmHg 25%
    20:00 +19°C° 0 mm 2 mps 669 mmHg 26%
    21:00 +18°C° 0 mm 2 mps 669 mmHg 28%
    22:00 +17°C° 0 mm 2 mps 669 mmHg 29%
    23:00 +16°C° 0 mm 2 mps 669 mmHg 31%

    8 June, Monday

    Time Temperature Precipitation Wind Pressure Humidity
    00:00 +14°C° 0 mm 3 mps 668 mmHg 33%
    01:00 +14°C° 0 mm 3 mps 668 mmHg 35%
    02:00 +13°C° 0 mm 3 mps 668 mmHg 37%
    03:00 +12°C° 0 mm 3 mps 668 mmHg 39%
    04:00 +12°C° 0 mm 3 mps 668 mmHg 41%
    05:00 +13°C° 0 mm 2 mps 668 mmHg 42%
    06:00 +12°C° 0 mm 2 mps 668 mmHg 44%
    07:00 +12°C° 0 mm 2 mps 669 mmHg 46%
    08:00 +16°C° 0 mm 2 mps 669 mmHg 38%
    09:00 +20°C° 0 mm 3 mps 670 mmHg 31%
    10:00 +23°C° 0 mm 4 mps 671 mmHg 24%
    11:00 +26°C° 0 mm 3 mps 670 mmHg 21%
    12:00 +28°C° 0 mm 3 mps 670 mmHg 19%
    13:00 +30°C° 0 mm 2 mps 670 mmHg 16%
    14:00 +30°C° 0 mm 2 mps 669 mmHg 15%
    15:00 +30°C° 0 mm 1 mps 669 mmHg 15%
    16:00 +30°C° 0 mm 1 mps 669 mmHg 15%
    17:00 +27°C° 0 mm 1 mps 668 mmHg 18%
    18:00 +24°C° 0 mm 1 mps 668 mmHg 21%
    19:00 +20°C° 0 mm 1 mps 667 mmHg 25%
    20:00 +19°C° 0 mm 2 mps 668 mmHg 26%
    21:00 +18°C° 0 mm 2 mps 668 mmHg 27%
    22:00 +17°C° 0 mm 2 mps 668 mmHg 28%
    23:00 +16°C° 0 mm 2 mps 667 mmHg 29%

    9 June, Tuesday

    Time Temperature Precipitation Wind Pressure Humidity
    00:00 +16°C° 0 mm 2 mps 667 mmHg 30%
    01:00 +15°C° 0 mm 2 mps 667 mmHg 31%
    02:00 +14°C° 0 mm 2 mps 667 mmHg 34%
    03:00 +13°C° 0 mm 2 mps 667 mmHg 37%
    04:00 +13°C° 0 mm 2 mps 666 mmHg 40%
    05:00 +12°C° 0 mm 2 mps 667 mmHg 42%
    06:00 +12°C° 0 mm 2 mps 667 mmHg 45%
    07:00 +12°C° 0 mm 2 mps 668 mmHg 47%
    08:00 +16°C° 0 mm 3 mps 669 mmHg 39%
    09:00 +20°C° 0 mm 3 mps 669 mmHg 32%
    10:00 +25°C° 0 mm 4 mps 670 mmHg 25%
    11:00 +27°C° 0 mm 3 mps 670 mmHg 22%
    12:00 +28°C° 0 mm 3 mps 669 mmHg 19%
    13:00 +30°C° 0 mm 2 mps 669 mmHg 16%
    14:00 +30°C° 0 mm 2 mps 669 mmHg 15%
    15:00 +30°C° 0 mm 1 mps 668 mmHg 15%
    16:00 +28°C° 0 mm 0 mps 668 mmHg 15%
    17:00 +27°C° 0 mm 1 mps 668 mmHg 18%
    18:00 +24°C° 0 mm 1 mps 667 mmHg 21%
    19:00 +21°C° 0 mm 1 mps 667 mmHg 25%
    20:00 +20°C° 0 mm 1 mps 667 mmHg 26%
    21:00 +18°C° 0 mm 2 mps 667 mmHg 28%
    22:00 +18°C° 0 mm 2 mps 667 mmHg 29%
    23:00 +17°C° 0 mm 2 mps 667 mmHg 29%
    Show more